Location: Dana
(41.8364°N, 106.7042°W)
Time: 11:35:58
(UTC+00:00)

Tiros 1 despin weight - Pass Details

Date: 10 May 2026
Orbit: 554 x 591 km, 48.2° (Epoch: 10 June)

Event Time Altitude Azimuth Distance (km) Brightness Sun altitude
Rises 16:53:00 0° 285° (WNW) 2,732 ? 53.3°
Reaches altitude 10° 16:55:25 10° 295° (WNW) 1,835 ? 53.7°
Maximum altitude 16:59:14 33° 1° (N) 935 ? 54.3°
Drops below altitude 10° 17:03:03 10° 67° (ENE) 1,835 ? 54.8°
Sets 17:05:28 0° 77° (ENE) 2,731 ? 55.2°
